Weather Roundup
Issued by NWS

Home | Current Version | Previous Version | Graphics & Text | Print | Product List | Glossary Off
Versions: 1 2 3 4 5 6 7 8 9 10 11 12 13 14 15 16 17 18 19 20 21 22 23 24 25 26 27 28 29 30 31 32 33 34 35 36 37 38 39 40 41 42 43 44 45 46 47 48 49 50

000
NZUS93 KARX 221759
HRRWXR

CURRENT HOURLY OBSERVATIONS ACROSS
MUCH OF THE UPPER MISSISSIPPI VALLEY
NATIONAL WEATHER SERVICE LA CROSSE WI
100 PM CDT FRI AUG 22 2014


...SOUTHEAST MINNESOTA...


CITY           SKY/WX    TMP DP  RH WIND       PRES   REMARKS
ROCHESTER      MOSUNNY   82  70  66 CALM      29.99S
ROCHESTER/MAYO FAIR      79  66  64 W3        29.98S
WINONA         CLOUDY    81  70  69 CALM      29.95R
AUSTIN         MOSUNNY   81  72  74 CALM      29.98S
ALBERT LEA     PTSUNNY   81  70  69 N3        29.98S
DODGE CENTER   PTSUNNY   79  70  73 NW5       29.99S
PRESTON        MOSUNNY   80  74  81 CALM      29.99S
OWATONNA       MOSUNNY   77  68  73 CALM      29.99R
FARIBAULT      PTSUNNY   84  66  54 NW3       29.98S
$$

...ELSEWHERE IN MINNESOTA...


CITY           SKY/WX    TMP DP  RH WIND       PRES   REMARKS
MINNEAPOLIS    CLOUDY    75  68  78 CALM      29.98R
INTNL FALLS    CLOUDY    71  64  78 NE6       30.00F
DULUTH         CLOUDY    67  63  87 SE6       30.00S FOG
RED WING       MOSUNNY   82  70  65 SW3       29.94S
REDWOOD FALLS  MOSUNNY   82  69  64 N5        29.98S
MANKATO        MOSUNNY   79  66  65 N6        29.98S
WORTHINGTON      N/A    N/A N/A N/A MISG        N/A
FAIRMONT       PTSUNNY   72  70  94 MISG      29.99S
$$

...SOUTHWEST WISCONSIN...


CITY           SKY/WX    TMP DP  RH WIND       PRES   REMARKS
LA CROSSE      CLOUDY    79  73  82 CALM      29.94S
PRAIRIE DU CHI MOSUNNY   86  73  65 S5        29.93S HX  93
BOSCOBEL       PTSUNNY   89  73  59 S6        29.93F HX  97
LONE ROCK      PTSUNNY   90  73  58 VRB5      29.93F HX  98
PLATTEVILLE    PTSUNNY   81  76  85 CALM      29.97F
FORT MC COY    CLOUDY    79  73  80 W5        29.95F
VIROQUA        CLOUDY    82  78  87 S6        29.97S HX  90
WIS DELLS      CLOUDY    85  70  60 S7        29.95S
$$

...ELSEWHERE IN WISCONSIN...


CITY           SKY/WX    TMP DP  RH WIND       PRES   REMARKS
MILWAUKEE      CLOUDY    76  71  85 SE7       29.96S
MADISON        PTSUNNY   83  74  74 VRB6      29.95S
GREEN BAY      PTSUNNY   79  72  79 S7        29.97S
EAU CLAIRE     NOT AVBL
BLACK RVR FLS  CLOUDY    80  75  85 W5        29.94S
MEDFORD        CLOUDY    71  70  99 S5        29.98S FOG
WAUSAU         CLOUDY    75  70  84 SE5       29.95F
WIS RAPIDS     PTSUNNY   83  73  72 SW10      29.96F
MARSHFIELD     CLOUDY    77  73  87 S8        29.96S
RICE LAKE      CLOUDY    76  71  84 E3        29.98S
$$

...NORTHEAST IOWA...


CITY           SKY/WX    TMP DP  RH WIND       PRES   REMARKS
WATERLOO       MOSUNNY   86  74  67 SE7       29.93F HX  94
DUBUQUE        CLOUDY    78  76  93 S6        29.97S FOG
DECORAH        CLOUDY    79  75  89 CALM      29.95F
MASON CITY     CLOUDY    82  72  71 NE6       29.99S
CHARLES CITY   CLOUDY    77  75  94 CALM      29.98R FOG
OELWEIN        PTSUNNY   84  77  79 S7        29.97S HX  94
$$

...ELSEWHERE IN IOWA...


CITY           SKY/WX    TMP DP  RH WIND       PRES   REMARKS
DES MOINES     CLOUDY    87  76  69 NW6       29.93F HX  97
IOWA CITY      PTSUNNY   84  76  76 S10       29.96F HX  93
FORT DODGE     CLOUDY    82  77  83 NE6       29.96S HX  91
MARSHALLTOWN   MOSUNNY   84  73  69 SW7       29.94S HX  90
CEDAR RAPIDS   MOSUNNY   85  75  72 SW5       29.95S HX  93
$$

...NORTHERN ILLINOIS...


CITY           SKY/WX    TMP DP  RH WIND       PRES   REMARKS
CHICAGO-OHARE  CLOUDY    81  73  76 W5        29.94F
DUPAGE         CLOUDY    83  69  62 SW14      29.95F
CHICAGO-MIDWAY CLOUDY    82  73  74 W9        29.95F
MOLINE         CLOUDY    79  74  84 SW12      29.94F
ROCKFORD       CLOUDY    78  71  79 S9        29.96F
STERLING       CLOUDY    75  72  88 W8        29.96F
PEORIA         CLOUDY    78  73  84 SW7       29.99S
$$

NOTE: "FAIR" INDICATES FEW OR NO CLOUDS BELOW 12,000 FEET WITH NO
SIGNIFICANT WEATHER AND/OR OBSTRUCTIONS TO VISIBILITY. WIND
SPEEDS ARE IN MILES-PER-HOUR.



USA.gov is the U.S. government's official web portal to all federal, state and local government web resources and services.